Location: Vihti�l�
(61.3833°N, 23.0667°E)
Time: 04:13:56
(UTC+00:00)

Meteor 2-3 Rocket - Pass Details

Date: 29 November 2020
Orbit: 842 x 885 km, 81.2° (Epoch: 19 January)

Event Time Altitude Azimuth Distance (km) Brightness Sun altitude
Rises 05:11:41 0° 232° (SW) 3,465 6.6 -12.4°
Reaches altitude 10° 05:14:20 10° 242° (WSW) 2,536 5.8 -12.2°
Maximum altitude 05:19:35 34° 307° (NW) 1,413 4.4 -11.6°
Drops below altitude 10° 05:24:53 10° 12° (NNE) 2,563 6.1 -11.0°
Sets 05:27:35 0° 21° (NNE) 3,507 6.9 -10.7°
